Regional Weather Roundup
Issued by NWS Charleston, SC

Current Version | Previous Version | Graphics & Text | Print | Product List | Glossary On
Versions: 1 2 3 4 5 6 7 8 9 10 11 12 13 14 15 16 17 18 19 20 21 22 23 24 25 26 27 28 29 30 31 32 33 34 35 36 37 38 39 40 41 42 43 44 45 46 47 48 49 50
000
ASUS42 KCHS 221225
RWRCHS

REGIONAL WEATHER ROUNDUP
NATIONAL WEATHER SERVICE CHARLESTON SC
800 AM EDT WED OCT 22 2014

NOTE: "FAIR" INDICATES FEW OR NO CLOUDS BELOW 12,000 FEET WITH NO
SIGNIFICANT WEATHER AND/OR OBSTRUCTIONS TO VISIBILITY.

NOT ALL STATIONS ARE QUALITY CONTROLLED BY THE NATIONAL
WEATHER SERVICE. USE DATA WITH CAUTION...ESPECIALLY
DEWPOINT OBSERVATIONS.

SCZ027-030-031-034>040-042>050-221300-
...SOUTH CAROLINA...

CITY           SKY/WX    TMP DP  RH WIND       PRES   REMARKS
N CHARLESTON   CLEAR     55  42  61 N8        30.02R
6HR MIN TEMP:  52; 6HR MAX TEMP:  63;

WATERFRONT PRK NOT AVBL
FORT JOHNSON   NOT AVBL
JOHNS ISLAND   SUNNY     57  45  62 N13G18    30.03R
PINOPOLIS      NOT AVBL
MONCKS CORNER  FAIR      57  46  67 N10       30.02R
SUMMERVILLE    FAIR      46  46 100 CALM      30.04R
BEAUFORT MCAS  CLEAR     54  45  71 N9        30.03R
6HR MIN TEMP:  54; 6HR MAX TEMP:  63;

BEAUFORT ARPT  FAIR      55  45  67 N10       30.03R
HILTON HEAD IS CLEAR     57  45  62 N12G21    30.03R
GEORGETOWN     NOT AVBL
WALTERBORO     SUNNY     50 N/A N/A CALM      30.05R
ORANGEBURG     CLEAR     48  42  80 N5        30.04R
6HR MIN TEMP:  48; 6HR MAX TEMP:  58;

BARNWELL       FAIR      45  43  93 CALM      30.05R
AIKEN          FAIR      46  43  87 N3        30.09R
MANNING        FAIR      48  43  81 N3        30.04R
KINGSTREE      NOT AVBL
COLUMBIA       CLEAR     45  40  82 CALM      30.04R
6HR MIN TEMP:  45; 6HR MAX TEMP:  59;

SUMTER         CLEAR     47  42  80 NW3       30.02R
6HR MIN TEMP:  47; 6HR MAX TEMP:  57;

FLORENCE       CLEAR     48  40  73 NW6       30.01R
6HR MIN TEMP:  48; 6HR MAX TEMP:  60;

MYRTLE BEACH   CLEAR     54  39  58 N12       29.98R
N MYRTLE BEACH CLEAR     51  41  68 NW7       29.98R
6HR MIN TEMP:  51; 6HR MAX TEMP:  60;


$$

GAZ063-065-086>088-099>101-113>116-118-119-134-136>141-150-221300-
...GEORGIA...

CITY           SKY/WX    TMP DP  RH WIND       PRES   REMARKS
SAVANNAH ARPT  CLEAR     53  45  74 N8        30.03R
6HR MIN TEMP:  52; 6HR MAX TEMP:  60;

HUNTER AAF     CLEAR     55  45  69 N8        30.01R
6HR MIN TEMP:  55; 6HR MAX TEMP:  61;

FORT STEWART   CLEAR     51  46  83 N3        30.02R
6HR MIN TEMP:  51; 6HR MAX TEMP:  59;

STATESBORO     NOT AVBL
SYLVANIA       SUNNY     51  49  95 CALM      30.06R
CLAXTON        FAIR      46  46 100 CALM      30.05R
THOMSON        CLEAR     43  43 100 CALM      30.11R
AUGUSTA-BUSH   CLEAR     42  40  92 CALM      30.06R
6HR MIN TEMP:  41; 6HR MAX TEMP:  56;

AUGUSTA-DANIEL CLEAR     50  42  74 N7        30.06R
SWAINSBORO     FAIR      52  50  93 MISG      30.06R FOG
VIDALIA        CLEAR     52  46  82 N3        30.05R
ALMA           CLEAR     53  49  86 N5        30.03R
6HR MIN TEMP:  49; 6HR MAX TEMP:  56;

WAYCROSS       CLEAR     55  53  92 N6        30.04R
JESUP          FAIR      59  52  77 NE5       30.04R
BRUNSWICK      CLEAR     55  50  82 N7        30.03R
SAINT SIMONS   CLEAR     55  51  86 N9        30.00R
6HR MIN TEMP:  55; 6HR MAX TEMP:  63;


$$

SCZ027-028-034-036>038-045-046-048>050-GAZ119-141-221300-
...LAKE AND SUPPLEMENTAL COASTAL OBSERVATIONS...

STATION/POSITION TIME  TEMP    WIND        PRES    WAVE   SWELL
                       AIR SEA DIR/SP/G            HT/PER HT/PER/DIR
                 (UTC) (F)     (DEG/KT/KT) (MB)    (FT/S) (FT/S/D)
UPR LAKE MARION  NOT AVBL
WINYAH BAY       1200   53     340/  6     1015.0S
LAKE MURRAY      1100   49     340/  1/  7 1016.6R
ACE BASIN NERRS  1200   53     360/  3     1016.0S
FORT PULASKI     1200   59     360/ 10/ 13 1016.9R
SAPELO ISLAND    NOT AVBL

$$

ANZ835-935-AMZ111-154-330-350-352-354-374-450-454-472-221300-
...C-MAN AND BUOY OBSERVATIONS...

STATION/POSITION TIME  TEMP    WIND        PRES    WAVE   SWELL
                       AIR SEA DIR/SP/G            HT/PER HT/PER/DIR
                 (UTC) (F)     (DEG/KT/KT) (MB)    (FT/S) (FT/S/D)
FOLLY BEACH CMAN 1200   58     360/ 15/ 19 1016.8R
BUOY 41004       1200   64 79  350/ 19/ 23 1014.2R   5/ 6   2/10
BUOY 41008       1200   67 76   20/ 17/ 21 1015.0R   3/ 5   2/ 90/ 9
5E ST. MARYS GA  1200      78                N/A     3/ 4
FRYING PAN BUOY  1200   60 75  340/ 19/ 21 1013.9R   5/ 6
BUOY 41025       1200   62     300/ 21/ 25 1009.9R   4/ 4   2/150/10
CAPE LOOKOUT NC  1200   57     330/ 16/ 19 1012.3R
BUOY 41002       1120   77 79  280/ 17/ 21 1011.5R   5/ 6   2/100/ 9
BUOY 41010       1200   77 80  220/ 10/ 10 1013.7R   2/ 8   2/ 70/ 8
BUOY 41012       NOT AVBL
ST AUGUSTINE FL  1200   63     310/  7/  9 1015.8R
CAPERS NEARSHORE 1100   58     360/ 17/ 21   N/A
FRIPP NEARSHORE  NOT AVBL


$$



USA.gov is the U.S. government's official web portal to all federal, state and local government web resources and services.